USPP

Perm/Bolshoye Savino International Airport

Airport
ICAO code
USPP
IATA Code
PEE
Summary
ICAO Region
EUR
ICAO Territory
Location

Bolshoye Savino, Permskiy Kray

Serving
Perm
Elevation
123 ft
Coordinates
57° 55' 11" N , 56° 1' 9" E
Metar
USPP 220100Z 22006MPS 9999 -SN BKN027 M14/M17 Q1030 R21/090060 TEMPO 3200 -SN BKN006 RMK QFE762

Description

Perm International Airport is an international airport located in Perm Krai, Russia located 16 kilometres southwest of Perm, in the village of Bolshoye Savino.

Runways

Designator Length Width Surface Rops
3/21 3206 49 CON Yes/Yes

Airport map

Aerial View

SKYbrary Partners:

Safety knowledge contributed by: